GFSNE_250_spd_060.txt.gz
Wind_Speed
96 100 102 108 109 110 113 115 113 109 106 108 107 104 99 98 96 93 89 85 82 79 74 71 68 67 66 67 69 71 73 74 79 86 90 96 110 117
101 103 108 110 109 113 115 114 111 109 108 109 106 101 96 90 85 82 79 77 73 69 67 66 64 64 63 63 64 67 68 69 71 79 86 92 103 112
106 110 111 110 114 115 115 113 112 111 109 105 101 94 87 82 80 77 73 71 66 63 62 61 61 59 58 59 61 63 65 67 68 72 81 88 95 103
110 110 112 115 117 116 114 114 113 110 104 98 93 88 83 78 75 73 69 64 61 59 59 57 54 53 54 55 56 59 61 63 66 68 75 83 90 98
111 113 116 117 117 116 115 114 110 106 99 91 86 82 79 74 72 68 65 61 55 56 56 53 50 51 51 52 53 56 58 61 63 67 71 79 86 93
113 116 117 118 117 117 116 111 106 101 92 86 81 77 73 70 66 63 60 55 51 52 52 46 48 50 51 51 50 51 54 57 59 64 68 74 80 89
118 119 117 117 118 117 114 107 100 93 87 82 77 74 69 66 62 58 56 53 48 49 46 40 50 47 47 47 49 49 52 55 58 60 65 70 77 83
120 119 118 118 116 113 108 100 92 86 81 77 72 67 63 61 58 55 53 50 46 48 45 37 48 41 46 47 47 47 49 52 54 57 63 70 73 80
120 118 118 116 113 108 100 93 87 80 75 71 67 63 61 58 56 52 49 47 45 45 44 35 44 41 44 46 47 44 44 47 52 56 60 66 72 76
118 117 117 114 108 100 93 88 82 74 71 67 64 61 58 55 53 51 48 45 43 43 42 36 39 37 40 45 45 41 43 44 47 51 56 60 67 74
118 117 114 107 100 94 88 82 77 70 67 62 59 57 55 53 52 50 46 44 41 39 40 35 36 35 35 40 42 39 41 41 44 48 52 57 63 69
117 114 107 99 96 89 83 78 72 65 62 58 55 55 54 52 50 48 45 41 39 36 38 32 34 35 32 34 38 36 37 40 41 45 49 54 59 65
111 106 102 97 88 84 77 73 67 62 59 55 52 52 52 50 48 45 43 39 36 35 35 32 30 29 31 29 31 35 35 38 38 42 45 50 56 61
104 100 96 93 84 79 73 69 65 59 57 53 52 51 49 46 45 42 41 37 36 33 33 33 26 27 27 29 28 31 31 35 37 41 43 47 53 57
99 93 91 89 78 75 70 66 62 57 56 53 51 49 47 44 42 39 38 36 35 33 31 31 27 26 26 26 25 29 29 32 35 38 40 43 48 52
93 87 84 82 75 71 67 63 59 56 54 52 50 46 45 43 41 37 35 34 34 34 29 28 26 24 25 24 23 26 26 29 32 35 38 40 44 48
89 82 77 76 73 69 65 61 57 54 52 50 47 45 43 41 39 36 33 32 33 32 30 25 23 23 23 24 23 24 24 26 28 31 34 37 41 45
83 79 75 70 67 65 61 58 53 51 50 47 46 44 42 40 37 35 32 31 31 30 28 24 22 21 22 22 21 21 21 23 26 28 31 33 37 43
79 76 72 68 63 60 56 54 50 48 48 45 44 42 39 37 35 34 32 30 29 28 27 23 20 19 20 21 19 20 20 21 24 26 28 30 33 39
74 73 69 63 60 57 55 52 48 46 45 43 41 39 36 35 33 32 31 29 28 27 25 22 20 19 18 20 19 19 19 20 22 24 26 28 32 36
72 69 65 62 58 54 50 48 45 44 43 41 39 37 35 33 32 30 30 28 26 26 24 22 20 19 18 18 19 18 18 19 21 23 25 28 30 35
69 67 62 58 54 50 48 45 43 42 40 38 37 35 33 31 30 29 28 27 25 24 22 21 20 19 18 17 18 19 18 19 21 22 24 26 29 32
66 63 59 54 51 48 45 43 42 39 37 36 35 33 31 29 28 28 26 26 24 22 22 20 19 19 18 18 18 19 20 20 21 22 24 26 28 31

GFSNE_250_spd_063.txt.gz
Wind_Speed
90 93 97 100 105 108 110 113 115 116 118 118 115 111 108 103 98 95 93 90 86 81 78 75 73 73 74 73 71 71 71 72 75 79 84 89 92 97
93 97 102 105 110 112 115 116 119 119 116 116 112 106 101 96 89 87 83 80 77 73 69 68 67 66 66 66 66 67 67 67 69 70 75 82 88 95
98 103 106 110 114 115 116 119 120 120 117 113 107 104 98 90 84 81 77 73 70 65 62 61 60 59 59 61 61 62 64 65 66 67 69 73 82 91
104 107 111 115 115 117 120 121 121 118 114 107 105 100 93 85 81 77 73 67 64 60 59 58 54 53 53 55 57 59 60 63 65 65 68 70 76 83
106 110 115 115 118 120 122 122 118 115 111 104 99 93 87 81 76 71 67 61 57 56 57 53 50 50 50 51 52 53 56 58 60 62 64 67 72 79
110 115 115 118 121 122 123 121 117 114 107 98 93 88 80 76 71 67 64 58 56 53 53 49 49 49 47 48 48 49 52 55 57 59 60 63 68 74
114 114 117 121 122 123 122 119 115 109 100 92 87 81 76 71 67 63 61 56 52 51 48 43 51 45 46 47 47 48 47 49 53 55 57 61 65 70
113 115 120 121 124 123 120 117 111 103 93 86 83 75 73 66 63 59 55 52 50 49 45 43 47 43 44 45 45 44 45 48 50 53 56 59 64 67
114 119 120 123 124 122 117 112 105 96 86 83 77 71 68 62 60 57 53 50 48 50 46 37 43 40 43 43 43 43 44 46 49 51 53 57 61 66
118 120 121 122 123 117 111 105 97 89 82 78 71 68 63 60 57 54 52 49 46 46 47 38 40 39 40 41 41 41 42 44 44 48 52 55 58 62
120 121 123 121 118 109 101 96 91 83 78 72 68 66 62 59 55 54 51 49 45 41 44 37 37 36 35 38 40 40 42 42 42 45 48 52 55 59
121 121 122 119 110 103 96 92 85 78 74 69 65 63 60 57 53 52 51 46 42 38 41 35 36 35 30 35 38 40 42 42 42 42 43 46 52 56
120 118 116 114 106 97 91 85 79 74 73 68 63 60 57 54 52 50 48 45 40 36 37 33 32 35 32 30 35 40 39 38 40 39 39 42 48 52
119 117 111 106 100 92 85 80 75 72 70 66 60 57 55 51 50 48 45 43 40 36 33 33 29 31 32 32 32 35 37 36 38 37 38 41 44 48
120 112 105 97 92 86 80 76 73 69 66 62 56 54 52 49 47 45 43 41 39 37 32 30 29 30 30 30 31 32 33 34 35 35 37 39 41 44
110 106 97 91 86 81 76 72 69 66 62 58 53 51 48 47 45 42 40 39 36 36 32 27 29 30 29 29 29 29 31 32 31 33 35 35 37 41
100 95 90 85 80 76 73 71 67 63 59 56 52 49 46 44 43 41 38 36 33 32 33 28 25 29 27 29 28 27 28 28 28 30 32 33 34 37
93 87 84 80 76 71 69 66 62 59 55 53 49 46 43 42 40 38 35 33 31 30 28 27 26 27 26 26 27 26 26 25 25 28 30 31 33 35
87 83 78 75 73 69 64 61 58 54 51 48 45 42 40 39 37 35 33 31 29 28 27 26 24 25 25 25 25 24 24 23 23 26 28 30 32 35
82 78 74 71 69 66 61 56 54 51 47 45 42 40 38 37 35 33 32 29 28 26 25 24 23 23 23 24 25 23 22 22 23 25 27 29 30 33
78 74 72 69 65 61 56 53 50 47 44 42 40 38 35 34 33 32 30 27 26 24 23 23 21 21 22 22 23 23 21 21 22 24 26 28 29 31
74 72 70 66 61 57 52 48 47 44 41 39 37 35 33 32 31 29 28 26 24 23 22 21 21 20 21 21 21 22 21 20 21 23 25 27 28 30
72 69 65 62 57 53 48 45 43 41 38 36 34 32 30 29 28 27 26 25 23 22 21 20 20 19 20 21 21 21 21 20 21 22 24 27 28 29

GFSNE_250_spd_069.txt.gz
Wind_Speed
86 87 92 94 93 95 98 100 102 101 106 112 115 120 120 118 114 116 116 115 114 109 102 97 90 85 81 77 75 73 71 70 69 70 71 72 72 73
90 93 95 96 98 100 101 104 107 109 109 114 121 124 123 122 120 118 118 114 110 103 98 93 87 82 75 71 67 65 65 65 63 63 64 66 66 68
93 95 97 100 102 104 107 109 112 116 115 116 124 127 125 124 122 121 120 114 107 98 92 88 83 78 69 65 61 61 61 61 60 59 60 61 62 64
97 98 100 103 104 108 110 113 117 119 121 124 125 128 126 126 125 119 117 112 106 94 87 82 77 72 66 61 57 56 57 56 57 56 55 58 60 61
98 101 104 105 108 110 113 117 119 120 124 130 128 125 125 127 124 121 113 107 101 91 81 77 72 68 64 59 54 54 54 52 51 52 53 53 56 58
101 103 105 108 110 113 117 118 122 123 129 131 128 126 126 126 124 118 110 102 92 86 76 71 68 66 63 57 51 51 50 49 49 49 50 51 53 56
101 104 106 108 112 117 120 121 125 129 131 129 128 128 128 127 123 113 103 94 88 78 72 69 65 64 60 57 51 48 49 48 48 48 48 49 50 53
103 106 109 113 116 115 117 120 126 132 129 130 130 132 130 125 117 107 98 90 82 76 68 67 62 60 56 55 52 47 47 48 48 47 47 47 49 51
107 110 114 116 117 121 123 125 125 122 124 128 128 130 124 118 109 98 90 84 77 73 65 64 60 57 53 53 52 46 45 46 46 46 46 46 47 50
108 111 113 115 120 123 127 126 126 127 130 127 123 118 115 109 101 90 84 78 74 69 62 61 57 53 51 49 50 46 43 42 44 44 43 44 46 49
110 113 116 119 122 124 123 123 125 128 131 128 121 114 107 99 92 84 79 73 70 65 59 57 53 49 48 45 48 45 41 40 41 42 41 42 44 47
113 114 116 118 118 120 122 125 126 127 124 120 117 110 102 93 87 79 74 70 65 62 56 54 49 47 46 42 44 44 39 38 38 39 39 40 43 45
110 111 113 116 117 121 123 125 124 120 116 115 110 102 93 86 82 76 71 63 60 58 53 50 46 44 44 42 39 44 38 36 35 36 36 38 41 43
111 112 113 117 120 122 123 121 116 114 112 108 101 93 86 80 75 72 68 64 56 53 50 47 43 41 41 40 37 40 38 34 32 34 36 36 38 40
110 114 118 119 120 120 118 113 112 109 104 98 92 87 81 75 70 65 61 56 54 50 47 42 41 39 39 39 33 37 37 35 32 32 36 35 36 38
114 118 118 118 116 111 109 108 105 101 95 89 85 81 75 70 64 60 56 52 50 46 44 40 38 37 37 37 31 33 34 33 32 33 33 33 34 34
115 114 113 110 107 105 105 102 95 91 86 84 80 75 69 64 60 57 53 49 47 44 42 39 35 35 34 35 32 30 32 30 31 33 31 31 31 31
110 107 105 104 102 100 98 94 90 84 81 78 75 69 63 58 56 53 49 46 44 41 39 38 35 33 31 32 32 29 29 28 29 31 30 28 28 29
106 104 101 99 96 94 91 88 83 80 76 72 67 63 58 54 52 49 46 44 41 39 36 36 34 32 29 29 29 30 28 28 28 29 28 27 27 28
104 101 97 93 89 87 86 83 79 73 70 66 62 58 54 51 48 45 43 41 38 36 34 34 33 31 28 28 27 27 26 27 26 26 26 26 27 27
100 94 90 87 85 83 81 77 72 67 63 61 59 53 50 49 46 42 41 39 35 33 33 32 30 29 28 27 26 25 25 25 24 25 24 25 26 25
92 88 86 84 82 79 76 71 66 62 58 56 55 51 48 45 42 40 39 37 34 32 32 30 28 27 26 26 25 25 24 24 23 24 23 23 24 22
85 83 82 80 77 73 68 66 61 58 55 52 49 48 46 43 40 38 37 35 32 31 30 28 27 26 25 25 24 24 24 23 23 23 22 22 22 21

GFSNE_250_spd_072.txt.gz
Wind_Speed
81 88 89 89 90 92 95 99 101 104 105 108 109 112 114 116 118 119 120 120 121 122 119 117 114 108 97 92 83 78 75 71 70 68 66 64 64 64
90 96 92 92 95 99 102 105 109 110 107 110 112 115 117 121 124 125 125 124 125 121 119 118 110 102 96 88 76 74 69 66 64 62 59 57 57 59
90 89 95 96 99 104 106 108 110 113 112 111 115 118 121 124 126 130 128 126 122 121 119 116 106 100 94 85 75 70 65 62 61 59 55 54 54 54
91 94 98 101 104 106 108 110 113 114 116 116 118 120 123 126 130 130 129 123 122 121 118 108 103 93 85 80 74 68 62 59 58 57 53 52 52 52
91 96 99 103 104 106 108 109 112 115 119 121 120 123 126 129 130 129 125 123 121 116 110 102 96 87 82 75 70 64 59 56 56 53 50 49 49 49
93 96 98 101 103 106 109 112 115 117 121 125 126 126 124 124 126 128 126 122 117 111 99 95 86 80 78 72 68 62 55 51 54 50 48 47 46 47
92 95 98 101 105 108 111 113 118 122 125 126 123 125 126 127 129 129 126 120 112 109 95 89 81 76 72 67 64 60 55 48 50 48 45 46 45 46
93 97 101 104 108 111 115 116 119 120 118 122 120 120 120 125 127 125 121 114 107 102 89 83 76 72 67 64 60 58 53 47 45 48 44 45 45 46
96 100 104 109 113 114 116 114 114 119 120 120 121 122 125 124 122 118 113 109 103 94 85 78 72 68 64 62 56 55 49 45 43 44 43 43 44 45
102 104 105 108 110 110 109 113 113 115 118 121 125 125 123 121 118 112 109 103 96 86 79 71 70 65 61 58 53 51 47 42 41 41 42 40 41 42
103 105 104 104 107 111 111 111 111 114 118 123 125 124 121 118 115 109 104 96 89 82 76 68 66 61 59 55 50 48 45 40 39 39 39 39 39 41
102 103 104 104 104 110 113 114 113 117 118 118 118 119 118 113 111 106 96 89 82 78 71 65 61 55 56 51 47 44 44 38 37 38 37 38 38 40
96 96 98 105 109 110 113 116 117 115 114 112 112 113 112 109 104 98 90 84 78 73 66 62 57 51 51 48 43 41 42 38 34 37 37 36 37 39
94 97 101 105 108 112 115 117 116 113 109 109 109 110 106 102 94 87 83 79 73 67 60 56 54 48 46 45 40 37 40 37 34 34 36 36 36 38
99 102 104 107 110 113 116 116 112 110 109 106 106 105 98 93 86 80 75 73 68 64 58 52 48 45 43 41 38 36 37 36 35 32 33 36 35 35
103 105 107 110 113 114 112 111 111 110 107 104 99 96 91 85 79 74 69 62 61 58 55 50 44 42 39 38 36 34 35 34 34 31 32 34 34 34
108 110 113 113 112 110 109 110 109 105 102 97 93 89 85 79 73 69 65 58 55 52 49 45 42 39 37 36 35 33 32 33 32 32 31 32 32 32
113 113 113 109 106 106 105 104 103 99 95 92 88 83 79 74 67 63 60 55 52 48 46 42 39 36 34 34 33 32 31 31 30 30 31 30 31 30
114 112 109 108 106 104 100 96 93 93 90 85 81 77 71 68 62 59 56 52 49 46 43 40 37 34 32 32 32 32 30 29 29 28 29 29 28 29
112 109 106 104 100 97 93 90 89 87 84 79 74 70 66 62 58 55 51 47 46 42 40 37 35 33 31 29 30 30 30 27 27 26 27 27 27 27
110 108 105 99 95 92 89 86 83 81 77 74 69 66 62 58 55 51 47 44 42 39 37 35 33 32 30 28 29 28 27 27 26 25 26 25 25 26
106 101 97 94 91 87 83 80 77 75 72 69 65 61 58 54 51 46 43 42 40 37 34 33 31 30 28 27 27 27 25 25 24 23 24 23 23 25
98 94 90 88 85 82 78 74 72 69 66 63 59 55 51 48 46 43 41 40 37 35 33 31 29 29 27 27 26 25 24 23 23 22 22 21 22 23

GFSNE_250_spd_075.txt.gz
Wind_Speed
77 77 81 85 89 93 98 100 102 100 98 104 109 113 115 115 115 115 116 118 119 117 116 115 115 114 116 117 109 101 94 88 83 79 74 72 72 69
78 82 85 89 93 96 100 102 104 101 103 107 112 113 115 116 120 120 123 121 118 116 116 115 116 117 116 113 102 97 86 82 77 72 68 67 65 62
77 79 84 86 91 95 98 101 104 105 106 108 110 112 114 118 120 123 122 120 119 119 118 120 120 118 114 108 97 91 82 78 71 66 64 64 60 56
77 78 80 83 87 89 92 99 105 108 108 108 109 114 117 120 121 119 117 120 121 123 123 122 117 113 109 101 96 83 77 72 67 63 61 60 57 53
74 76 80 84 89 93 98 101 105 107 110 111 111 114 115 117 117 118 118 120 124 127 126 121 113 107 101 95 88 81 73 68 63 61 57 57 54 51
77 80 84 87 91 95 99 103 106 109 112 114 112 111 109 114 117 118 120 123 122 123 123 115 109 104 99 88 82 76 70 64 60 57 55 55 50 49
81 84 87 90 93 97 101 105 108 108 110 110 108 108 108 108 118 122 124 123 120 118 116 112 106 100 94 82 76 69 65 61 57 54 50 52 47 46
84 86 89 92 90 89 96 101 101 104 107 104 104 107 111 116 117 118 119 118 116 115 109 105 101 92 84 77 71 66 62 57 53 49 46 47 45 43
85 85 85 89 94 95 100 101 104 107 108 108 108 109 111 113 116 114 115 115 113 113 106 97 91 85 77 73 67 62 57 54 50 45 43 43 44 41
82 84 91 95 97 96 96 97 100 103 104 108 111 111 112 113 115 114 114 112 110 108 100 89 85 79 74 68 63 58 53 51 47 42 41 40 41 40
90 94 95 92 90 96 95 95 96 100 104 108 110 111 111 111 114 113 113 111 106 99 93 83 81 75 70 64 58 55 51 47 43 39 39 39 39 39
93 96 97 96 101 102 103 101 101 102 103 106 110 112 111 111 113 113 110 106 98 91 86 78 74 69 65 59 54 51 48 45 41 37 38 38 38 38
91 91 94 96 102 105 106 106 104 104 105 105 106 107 110 110 110 108 104 98 91 87 78 73 69 64 59 57 49 48 44 41 37 35 35 37 36 37
89 92 98 104 105 107 111 111 111 109 107 104 105 107 107 107 104 100 96 91 86 81 73 67 63 59 56 53 49 43 41 38 36 33 33 35 36 36
95 100 105 108 111 114 115 114 111 110 108 108 108 106 104 101 97 93 90 85 80 74 66 61 57 54 51 49 45 42 38 37 35 32 31 33 35 35
102 105 109 113 114 114 114 113 112 112 111 108 104 101 99 96 93 88 84 78 72 66 61 56 54 50 47 46 42 39 36 34 34 31 30 32 33 33
109 111 112 114 114 114 114 115 115 113 109 105 100 97 94 91 88 83 77 71 66 61 57 52 51 47 44 42 40 36 35 32 31 31 29 30 31 31
114 113 114 114 113 113 112 113 112 107 103 99 97 93 90 87 81 78 69 66 60 57 54 49 47 44 42 39 37 35 32 30 30 29 28 28 30 30
115 116 114 112 111 111 110 107 103 99 96 94 91 88 83 81 72 71 64 57 58 54 49 45 42 40 37 36 35 33 31 29 29 28 28 28 29 29
117 115 114 112 110 107 102 98 95 92 90 87 83 80 75 72 68 62 59 53 51 49 46 42 39 37 34 33 33 30 29 29 27 27 27 27 28 28
119 117 115 111 107 102 96 92 89 87 83 80 77 73 69 64 60 57 52 48 47 44 41 39 37 35 33 30 31 29 28 27 26 26 26 26 26 26
115 112 108 103 97 93 90 88 85 80 76 73 70 67 63 59 55 51 48 45 43 41 38 36 34 33 31 29 29 27 27 26 25 25 25 25 25 25
108 103 98 95 92 89 85 82 78 75 72 69 65 61 58 54 51 48 44 42 40 38 36 33 31 31 29 27 27 26 25 24 24 24 25 25 25 24